When you browse on this site, cookies collect data to enhance your experience and personalize the content and advertising you see.
Visit our Privacy Policy to learn more. By continuing to use the site, you agree to this use of cookies and data.

Hourly Weather Lopatino

Today, 15 August, Saturday

Time Temperature Precipitation Wind Pressure Humidity
00:00 +11°C° 0 mm 1 mps 748 mmHg 84%
01:00 +11°C° 0 mm 1 mps 748 mmHg 84%
02:00 +10°C° 0 mm 1 mps 748 mmHg 85%
03:00 +10°C° 0 mm 1 mps 748 mmHg 85%
04:00 +10°C° 0 mm 1 mps 748 mmHg 86%
05:00 +10°C° 0 mm 1 mps 748 mmHg 86%
06:00 +12°C° 0 mm 1 mps 748 mmHg 81%
07:00 +14°C° 0 mm 1 mps 748 mmHg 77%
08:00 +16°C° 0 mm 1 mps 748 mmHg 72%
09:00 +17°C° 0 mm 2 mps 748 mmHg 69%
10:00 +18°C° 0 mm 2 mps 748 mmHg 67%
11:00 +19°C° 0 mm 2 mps 748 mmHg 64%
12:00 +20°C° 0.1 mm 3 mps 748 mmHg 65%
13:00 +20°C° 0.1 mm 3 mps 747 mmHg 65%
14:00 +21°C° 0.1 mm 3 mps 747 mmHg 65%
15:00 +20°C° 0.4 mm 3 mps 747 mmHg 69%
16:00 +20°C° 0.4 mm 3 mps 746 mmHg 73%
17:00 +20°C° 0.4 mm 3 mps 746 mmHg 76%
18:00 +19°C° 0.3 mm 3 mps 746 mmHg 82%
19:00 +17°C° 0.3 mm 3 mps 746 mmHg 87%
20:00 +16°C° 0.3 mm 3 mps 746 mmHg 92%
21:00 +14°C° 0.1 mm 3 mps 746 mmHg 93%
22:00 +14°C° 0.1 mm 3 mps 746 mmHg 94%
23:00 +14°C° 0.1 mm 3 mps 746 mmHg 95%

Tomorrow, 16 August, Sunday

Time Temperature Precipitation Wind Pressure Humidity
00:00 +13°C° 0 mm 3 mps 745 mmHg 95%
01:00 +14°C° 0 mm 2 mps 745 mmHg 96%
02:00 +14°C° 0 mm 2 mps 745 mmHg 96%
03:00 +14°C° 0 mm 2 mps 745 mmHg 96%
04:00 +13°C° 0 mm 2 mps 745 mmHg 95%
05:00 +13°C° 0 mm 2 mps 745 mmHg 95%
06:00 +15°C° 0 mm 2 mps 745 mmHg 92%
07:00 +17°C° 0 mm 2 mps 746 mmHg 88%
08:00 +18°C° 0 mm 2 mps 746 mmHg 84%
09:00 +20°C° 0 mm 2 mps 746 mmHg 79%
10:00 +21°C° 0 mm 2 mps 746 mmHg 74%
11:00 +24°C° 0 mm 2 mps 746 mmHg 69%
12:00 +24°C° 0.3 mm 3 mps 746 mmHg 68%
13:00 +24°C° 0.3 mm 3 mps 746 mmHg 67%
14:00 +25°C° 0.3 mm 3 mps 746 mmHg 66%
15:00 +25°C° 0.3 mm 3 mps 745 mmHg 69%
16:00 +25°C° 0.3 mm 3 mps 745 mmHg 72%
17:00 +24°C° 0.3 mm 3 mps 745 mmHg 76%
18:00 +23°C° 0 mm 2 mps 745 mmHg 80%
19:00 +20°C° 0 mm 2 mps 745 mmHg 84%
20:00 +19°C° 0 mm 2 mps 745 mmHg 88%
21:00 +18°C° 0 mm 2 mps 745 mmHg 89%
22:00 +17°C° 0 mm 2 mps 745 mmHg 90%
23:00 +17°C° 0 mm 2 mps 745 mmHg 90%

Day after tomorrow, 17 August, Monday

Time Temperature Precipitation Wind Pressure Humidity
00:00 +17°C° 0 mm 2 mps 745 mmHg 91%
01:00 +16°C° 0 mm 2 mps 745 mmHg 92%
02:00 +16°C° 0 mm 2 mps 745 mmHg 92%
03:00 +16°C° 0 mm 2 mps 745 mmHg 92%
04:00 +16°C° 0 mm 2 mps 745 mmHg 92%
05:00 +15°C° 0 mm 2 mps 745 mmHg 92%
06:00 +17°C° 0 mm 2 mps 745 mmHg 89%
07:00 +19°C° 0 mm 2 mps 745 mmHg 85%
08:00 +20°C° 0 mm 3 mps 745 mmHg 81%
09:00 +22°C° 0.1 mm 3 mps 745 mmHg 76%
10:00 +24°C° 0.1 mm 3 mps 745 mmHg 71%
11:00 +25°C° 0.1 mm 4 mps 745 mmHg 67%
12:00 +26°C° 0 mm 4 mps 745 mmHg 65%
13:00 +26°C° 0 mm 4 mps 744 mmHg 63%
14:00 +27°C° 0 mm 4 mps 744 mmHg 61%
15:00 +26°C° 0.1 mm 3 mps 744 mmHg 65%
16:00 +26°C° 0.1 mm 3 mps 744 mmHg 68%
17:00 +25°C° 0.1 mm 2 mps 743 mmHg 72%
18:00 +24°C° 0 mm 2 mps 743 mmHg 76%
19:00 +21°C° 0 mm 2 mps 743 mmHg 80%
20:00 +19°C° 0 mm 2 mps 743 mmHg 84%
21:00 +19°C° 0 mm 2 mps 743 mmHg 84%
22:00 +19°C° 0 mm 1 mps 743 mmHg 85%
23:00 +19°C° 0 mm 1 mps 743 mmHg 86%

18 August, Tuesday

Time Temperature Precipitation Wind Pressure Humidity
00:00 +18°C° 0 mm 1 mps 743 mmHg 88%
01:00 +18°C° 0 mm 1 mps 743 mmHg 89%
02:00 +18°C° 0 mm 1 mps 743 mmHg 90%
03:00 +18°C° 0 mm 1 mps 743 mmHg 90%
04:00 +18°C° 0 mm 1 mps 743 mmHg 90%
05:00 +16°C° 0 mm 1 mps 742 mmHg 91%
06:00 +19°C° 0 mm 1 mps 742 mmHg 87%
07:00 +20°C° 0 mm 1 mps 742 mmHg 83%
08:00 +21°C° 0 mm 2 mps 742 mmHg 79%
09:00 +23°C° 0.2 mm 2 mps 742 mmHg 74%
10:00 +24°C° 0.2 mm 2 mps 742 mmHg 69%
11:00 +26°C° 0.2 mm 2 mps 742 mmHg 64%
12:00 +26°C° 0.1 mm 3 mps 741 mmHg 61%
13:00 +26°C° 0.1 mm 3 mps 741 mmHg 58%
14:00 +27°C° 0.1 mm 3 mps 741 mmHg 55%
15:00 +26°C° 0.1 mm 3 mps 741 mmHg 60%
16:00 +26°C° 0.1 mm 3 mps 740 mmHg 64%
17:00 +25°C° 0.1 mm 2 mps 740 mmHg 69%
18:00 +23°C° 0.1 mm 2 mps 740 mmHg 72%
19:00 +21°C° 0.1 mm 2 mps 740 mmHg 75%
20:00 +19°C° 0.1 mm 2 mps 739 mmHg 78%
21:00 +19°C° 0 mm 2 mps 739 mmHg 77%
22:00 +18°C° 0 mm 2 mps 739 mmHg 77%
23:00 +18°C° 0 mm 2 mps 739 mmHg 77%

19 August, Wednesday

Time Temperature Precipitation Wind Pressure Humidity
00:00 +18°C° 0.1 mm 2 mps 739 mmHg 78%
01:00 +18°C° 0.1 mm 2 mps 739 mmHg 79%
02:00 +17°C° 0.1 mm 2 mps 738 mmHg 80%
03:00 +17°C° 0.2 mm 2 mps 738 mmHg 83%
04:00 +17°C° 0.2 mm 2 mps 738 mmHg 86%
05:00 +17°C° 0.2 mm 2 mps 738 mmHg 88%
06:00 +18°C° 0 mm 2 mps 738 mmHg 88%
07:00 +19°C° 0 mm 3 mps 738 mmHg 87%
08:00 +20°C° 0 mm 3 mps 738 mmHg 87%
09:00 +21°C° 0.1 mm 3 mps 738 mmHg 84%
10:00 +22°C° 0.1 mm 3 mps 738 mmHg 82%
11:00 +24°C° 0.1 mm 3 mps 738 mmHg 79%
12:00 +25°C° 1 mm 3 mps 738 mmHg 76%
13:00 +25°C° 1 mm 3 mps 738 mmHg 74%
14:00 +26°C° 1 mm 3 mps 738 mmHg 71%
15:00 +26°C° 0.7 mm 3 mps 738 mmHg 74%
16:00 +26°C° 0.7 mm 3 mps 738 mmHg 76%
17:00 +25°C° 0.7 mm 2 mps 738 mmHg 79%
18:00 +24°C° 0.4 mm 2 mps 738 mmHg 82%
19:00 +23°C° 0.4 mm 2 mps 737 mmHg 85%
20:00 +20°C° 0.4 mm 2 mps 737 mmHg 89%
21:00 +20°C° 0.2 mm 2 mps 738 mmHg 90%
22:00 +19°C° 0.2 mm 2 mps 738 mmHg 91%
23:00 +19°C° 0.2 mm 2 mps 738 mmHg 92%

20 August, Thursday

Time Temperature Precipitation Wind Pressure Humidity
00:00 +19°C° 0 mm 2 mps 738 mmHg 93%
01:00 +18°C° 0 mm 2 mps 738 mmHg 93%
02:00 +19°C° 0 mm 1 mps 738 mmHg 93%
03:00 +18°C° 0 mm 1 mps 738 mmHg 93%
04:00 +18°C° 0 mm 1 mps 738 mmHg 94%
05:00 +18°C° 0 mm 1 mps 738 mmHg 94%
06:00 +19°C° 0 mm 1 mps 738 mmHg 89%
07:00 +21°C° 0 mm 1 mps 738 mmHg 85%
08:00 +22°C° 0 mm 1 mps 738 mmHg 81%
09:00 +23°C° 0 mm 1 mps 739 mmHg 76%
10:00 +24°C° 0 mm 2 mps 739 mmHg 71%
11:00 +25°C° 0 mm 2 mps 739 mmHg 66%
12:00 +25°C° 0 mm 2 mps 739 mmHg 64%
13:00 +26°C° 0 mm 2 mps 739 mmHg 63%
14:00 +26°C° 0 mm 2 mps 739 mmHg 61%
15:00 +26°C° 0.1 mm 2 mps 739 mmHg 65%
16:00 +26°C° 0.1 mm 2 mps 739 mmHg 69%
17:00 +25°C° 0.1 mm 1 mps 739 mmHg 73%
18:00 +24°C° 0.3 mm 2 mps 739 mmHg 78%
19:00 +21°C° 0.3 mm 2 mps 739 mmHg 82%
20:00 +19°C° 0.3 mm 2 mps 739 mmHg 87%
21:00 +19°C° 0 mm 2 mps 739 mmHg 89%
22:00 +18°C° 0 mm 2 mps 740 mmHg 91%
23:00 +18°C° 0 mm 2 mps 740 mmHg 93%
Show more